Location: Bailleul
(50.3375°N, 2.8513°E)
Time: 10:17:27
(UTC+00:00)

Meteor 1-5 Rocket - Pass Details

Date: 19 April 2021
Orbit: 789 x 915 km, 81.2° (Epoch: 05 May)

Event Time Altitude Azimuth Distance (km) Brightness Sun altitude
Rises 23:27:27 0° 349° (NNW) 3,501 8.7 -28.0°
Reaches altitude 10° 23:29:59 10° 352° (N) 2,541 7.7 -28.0°
Maximum altitude 23:35:43 65° 74° (ENE) 941 4.3 -28.1°
Enters shadow 23:35:52 64° 84° (E) 943 4.3 -28.1°
